星链-3541 (STARLINK-3541 )

导读

STARLINK-3541是美国太空探索技术公司(SpaceX)星链计划中的一颗卫星,于北京时间2022年3月3日8时发射入轨,属于星链星座的组网卫星,主要用于提供全球宽带互联网服务。星链通过部署低轨卫星星座,可弥补地面网络覆盖不足,为偏远地区等提供网络连接,但也引发了天文观测等方面的争议。

Basic Information
目录编号:
51854
目录名称:
STARLINK-3541
国际标识:
2022-022C
轨道中心:
EARTH
卫星名称:
星链-3541
卫星全名:
星链-3541 (STARLINK-3541 )
卫星状态:
在轨 (已飞行1653 天)
发射日期:
2022-03-03 UTC
国别 :
美国 (US)
星等 :
--
This satellite is enrolled in the Space Conjunction Data Service (SCDS) and the current flight risk assessment level is: No High Risk
Orbit Information
数据来源 国际轨道数据 AOE轨道数据
星历时间 2026-09-10T14:48:43+0800
1天前
查看轨道信息
2026-09-06T07:00:00+0800
5天前
查看轨道信息
半长轴 6877.934km 6878.444km
偏心率 0.0004224 0.000383
轨道倾角 53.212° 53.212°
近地点辐角 61.204° 52.125°
升交点赤经 256.683° 276.499°
平近点角 298.938° 356.085°
近地点 496.891km 497.672km
远地点 502.703km 502.942km
周期 94.612分钟 94.623分钟
每日圈数 15.22004 15.218349
Detailed Information
固有亮度:
5
最大亮度:
2.5
卫星平台:
Starlink v1.5
覆盖范围:
全球
运营商:
太空探索技术公司
运营商所在国:
美国
制造商(研发单位):
太空探索技术公司
制造商所在国:
美国
使用方式:
暂无
Satellite Introduction
星链(Starlink)计划是由太空探索技术公司(SpaceX)提出的一个巨型低轨卫星互联网星座项目,计划在2019年至2024年间在太空搭建由约1.2万颗卫星组成的“星链”网络,其中1584颗将部署在地球上空550千米处的近地轨道,并从2020年开始工作。该卫星仍在工作。
2D Orbit Map
3D Orbit Map
Orbit Altitude Analysis Chart
Orbit Inclination Analysis Chart
Orbit Comprehensive Analysis Chart
View Comprehensive Chart
Conjunction Data List
Event ID Objects TCA Miss Dist (km) Collision Risk Probability Collision Risk Index (CRI) Action
CDM_260913-113605-185406-266422
LYRA-1 (62664)
2026-09-13T
11:36:14+0000
1.286 km
极远距离
9.168844E-6 低风险 0.54
CDM_260911-215004-318105-185424
2026-09-11T
21:50:27+0000
2.008 km
极远距离
2.37578E-6 低风险 0.43
CDM_260913-083705-185406-775022
OBJECT E (67750)
2026-09-13T
08:37:08+0000
2.346 km
极远距离
1.919933E-6 低风险 0.41
CDM_260905-020205-185405-306821
2026-09-05T
02:02:50+0000
2.415 km
极远距离
1.817551E-6 低风险 0.4
CDM_260912-202700-188305-185421
2026-09-12T
20:27:17+0000
2.721 km
极远距离
8.897246E-7 极低风险 0.34
Miss Distance Evolution Trend with All Objects
Collision Probability Evolution Trend with All Objects